Weather History for KFKS - May, 2013

Change the Weather History Date:

Monday, May 27, 2013

  Actual Average (KTVC) Record (KTVC)
Temperature  
Mean Temperature 54 °F 57 °F  
Max Temperature 71 °F 69 °F 93 °F (1978)
Min Temperature 38 °F 45 °F 28 °F (1961)
Degree Days  
Heating Degree Days 10 9  
Month to date heating degree days 339  
Since 1 July heating degree days 7406  
Cooling Degree Days 0 1  
Month to date cooling degree days 10  
Year to date cooling degree days 13  
Growing Degree Days 4 (Base 50)    
Moisture  
Dew Point 39 °F    
Average Humidity 55    
Maximum Humidity 89    
Minimum Humidity 27    
Precipitation  
Precipitation 0.00 in 0.09 in 1.84 in (1932)
Month to date precipitation 2.25  
Year to date precipitation 11.21  
Sea Level Pressure  
Sea Level Pressure 30.11 in    
Wind  
Wind Speed 3 mph (SE)    
Max Wind Speed 13 mph    
Max Gust Speed 20 mph    
Visibility 10 miles    
Events      
T = Trace of Precipitation, MM = Missing Value Source: NWS Daily Summary

Daily Weather History Graph

Daily Weather History Graph

Search for Another Location

Airport or City:

Trip Planner

Search our weather history database for the weather conditions in past years. The results will help you decide how hot, cold, wet, or windy it might be!

Date:

Astronomy

May. 27, 2013 Rise Set
Actual Time 6:05 AM EDT 9:18 PM EDT
Civil Twilight 5:30 AM EDT 9:54 PM EDT
Nautical Twilight 4:44 AM EDT 10:40 PM EDT
Astronomical Twilight 3:48 AM EDT 11:37 PM EDT
Moon 11:54 PM EDT (5/27) 8:44 AM EDT (5/27)
Length of Visible Light 16h 24m
Length of Day
15h 13m
Waning Gibbous, 91% of the Moon is Illuminated
May 27
Waning Gibbous
May 31
Last Quarter
Jun 8
New
Jun 16
First Quarter
Jun 23
Full

Hourly Weather History & Observations

Time (EDT) Temp. Windchill Dew Point Humidity Pressure Visibility Wind Dir Wind Speed Gust Speed Precip Events Conditions
12:12 AM 41.7 °F - 36.5 °F 82% 30.23 in 10.0 mi Calm Calm - N/A   Clear
12:33 AM 40.8 °F - 35.4 °F 81% 30.22 in 10.0 mi Calm Calm - N/A   Clear
12:53 AM 40.6 °F - 35.8 °F 83% 30.23 in 10.0 mi Calm Calm - N/A   Clear
1:13 AM 40.1 °F - 35.6 °F 84% 30.23 in 10.0 mi Calm Calm - N/A   Clear
1:33 AM 39.9 °F - 35.4 °F 84% 30.23 in 10.0 mi Calm Calm - N/A   Clear
1:53 AM 39.4 °F - 36.0 °F 88% 30.23 in 10.0 mi Calm Calm - N/A   Clear
2:13 AM 39.2 °F - 35.2 °F 86% 30.23 in 10.0 mi Calm Calm - N/A   Clear
2:33 AM 39.2 °F - 35.6 °F 87% 30.22 in 10.0 mi Calm Calm - N/A   Clear
2:53 AM 38.5 °F - 35.1 °F 87% 30.20 in 10.0 mi Calm Calm - N/A   Clear
3:13 AM 38.5 °F - 35.2 °F 88% 30.20 in 10.0 mi Calm Calm - N/A   Clear
3:33 AM 38.1 °F - 35.1 °F 89% 30.18 in 10.0 mi Calm Calm - N/A   Clear
3:54 AM 38.5 °F - 35.2 °F 88% 30.18 in 10.0 mi Calm Calm - N/A   Clear
4:14 AM 41.9 °F - 36.3 °F 81% 30.19 in 10.0 mi Calm Calm - N/A   Clear
4:34 AM 40.8 °F - 35.8 °F 82% 30.19 in 10.0 mi Calm Calm - N/A   Clear
4:54 AM 45.1 °F - 37.4 °F 74% 30.20 in 10.0 mi Calm Calm - N/A   Clear
5:14 AM 42.6 °F - 37.4 °F 82% 30.19 in 10.0 mi Calm Calm - N/A   Clear
5:34 AM 45.3 °F 42.3 °F 37.4 °F 74% 30.19 in 10.0 mi ESE 5.8 mph - N/A   Clear
5:54 AM 48.7 °F - 37.0 °F 64% 30.19 in 10.0 mi ESE 5.8 mph - N/A   Clear
6:14 AM 46.9 °F - 36.9 °F 68% 30.19 in 10.0 mi Calm Calm - N/A   Clear
6:34 AM 45.7 °F 44.4 °F 37.0 °F 72% 30.20 in 10.0 mi SE 3.5 mph - N/A   Clear
6:55 AM 47.7 °F - 37.0 °F 67% 30.19 in 10.0 mi ESE 4.6 mph - N/A   Clear
7:15 AM 48.0 °F - 37.2 °F 66% 30.19 in 10.0 mi SE 4.6 mph - N/A   Clear
7:35 AM 50.4 °F - 36.9 °F 60% 30.18 in 10.0 mi SE 4.6 mph - N/A   Clear
7:55 AM 51.4 °F - 37.2 °F 58% 30.19 in 10.0 mi ESE 4.6 mph - N/A   Clear
8:15 AM 52.9 °F - 37.9 °F 57% 30.18 in 10.0 mi ESE 4.6 mph - N/A   Clear
8:35 AM 54.5 °F - 38.5 °F 55% 30.18 in 10.0 mi ESE 4.6 mph - N/A   Clear
8:55 AM 56.3 °F - 39.2 °F 53% 30.18 in 10.0 mi SE 6.9 mph - N/A   Clear
9:15 AM 57.9 °F - 39.2 °F 50% 30.19 in 10.0 mi ESE 5.8 mph - N/A   Clear
9:36 AM 59.9 °F - 40.1 °F 48% 30.19 in 10.0 mi SE 4.6 mph - N/A   Clear
9:56 AM 61.7 °F - 38.7 °F 43% 30.18 in 10.0 mi SE 5.8 mph - N/A   Clear
10:16 AM 63.0 °F - 39.4 °F 42% 30.16 in 10.0 mi ESE 9.2 mph - N/A   Clear
10:36 AM 64.8 °F - 37.9 °F 37% 30.15 in 10.0 mi ESE 9.2 mph - N/A   Clear
10:56 AM 65.5 °F - 36.9 °F 35% 30.14 in 10.0 mi SE 12.7 mph - N/A   Clear
11:16 AM 66.4 °F - 35.6 °F 32% 30.13 in 10.0 mi ESE 11.5 mph 19.6 mph N/A   Clear
11:36 AM 67.1 °F - 35.4 °F 31% 30.13 in 10.0 mi ESE 10.4 mph 17.3 mph N/A   Clear
11:56 AM 67.8 °F - 35.2 °F 30% 30.12 in 10.0 mi ESE 10.4 mph 19.6 mph N/A   Clear
12:16 PM 68.9 °F - 35.6 °F 29% 30.11 in 10.0 mi SE 10.4 mph 16.1 mph N/A   Clear
12:36 PM 69.3 °F - 35.1 °F 28% 30.12 in 10.0 mi ESE 10.4 mph - N/A   Clear
12:57 PM 69.8 °F - 34.5 °F 27% 30.11 in 10.0 mi SSE 11.5 mph 17.3 mph N/A   Clear
1:17 PM 70.7 °F - 35.2 °F 27% 30.10 in 10.0 mi South 9.2 mph - N/A   Clear
1:32 PM 70.9 °F - 36.3 °F 28% 30.10 in 10.0 mi South 8.1 mph - N/A   Clear
1:52 PM 71.4 °F - 36.5 °F 28% 30.09 in 10.0 mi ESE 6.9 mph - N/A   Mostly Cloudy
2:12 PM 70.9 °F - 36.1 °F 28% 30.09 in 10.0 mi ENE 4.6 mph - N/A   Mostly Cloudy
2:32 PM 70.7 °F - 35.4 °F 27% 30.09 in 10.0 mi South 5.8 mph - N/A   Scattered Clouds
2:52 PM 71.4 °F - 36.1 °F 28% 30.08 in 10.0 mi East 6.9 mph - N/A   Mostly Cloudy
3:12 PM 71.4 °F - 36.9 °F 28% 30.08 in 10.0 mi South 8.1 mph - N/A   Overcast
3:32 PM 68.9 °F - 38.1 °F 32% 30.08 in 10.0 mi WSW 6.9 mph - N/A   Overcast
3:53 PM 65.1 °F - 43.0 °F 45% 30.07 in 10.0 mi SW 5.8 mph - N/A   Mostly Cloudy
4:13 PM 62.2 °F - 42.3 °F 48% 30.06 in 10.0 mi WNW 6.9 mph - N/A   Scattered Clouds
4:33 PM 61.9 °F - 41.4 °F 47% 30.05 in 10.0 mi Calm Calm - N/A   Mostly Cloudy
4:53 PM 63.7 °F - 40.3 °F 42% 30.04 in 10.0 mi Calm Calm - N/A   Mostly Cloudy
5:13 PM 63.7 °F - 39.4 °F 41% 30.03 in 10.0 mi Calm Calm - N/A   Scattered Clouds
5:33 PM 64.0 °F - 39.0 °F 40% 30.02 in 10.0 mi WNW 3.5 mph - N/A   Clear
5:53 PM 63.9 °F - 38.5 °F 39% 30.02 in 10.0 mi West 3.5 mph - N/A   Mostly Cloudy
6:13 PM 62.6 °F - 38.3 °F 41% 30.02 in 10.0 mi Calm Calm - N/A   Overcast
6:33 PM 63.3 °F - 39.4 °F 41% 30.01 in 10.0 mi Calm Calm - N/A   Overcast
6:54 PM 64.6 °F - 38.5 °F 38% 30.01 in 10.0 mi Calm Calm - N/A   Overcast
7:14 PM 64.4 °F - 39.2 °F 40% 30.00 in 10.0 mi WNW 3.5 mph - N/A   Overcast
7:34 PM 63.5 °F - 40.5 °F 43% 29.99 in 10.0 mi Calm Calm - N/A   Overcast
7:54 PM 63.0 °F - 42.8 °F 48% 30.00 in 10.0 mi West 3.5 mph - N/A   Overcast
8:14 PM 61.9 °F - 42.4 °F 49% 30.00 in 10.0 mi NNW 3.5 mph - N/A   Overcast
8:34 PM 60.8 °F - 42.1 °F 50% 29.99 in 10.0 mi Calm Calm - N/A   Mostly Cloudy
8:54 PM 59.7 °F - 40.8 °F 50% 29.99 in 10.0 mi Calm Calm - N/A   Scattered Clouds
9:14 PM 59.0 °F - 43.9 °F 57% 29.99 in 10.0 mi Calm Calm - N/A   Mostly Cloudy
9:34 PM 59.0 °F - 43.5 °F 56% 29.98 in 10.0 mi Calm Calm - N/A   Overcast
9:55 PM 57.7 °F - 45.5 °F 64% 29.98 in 10.0 mi Calm Calm - N/A   Overcast
10:15 PM 56.5 °F - 45.7 °F 67% 29.98 in 10.0 mi Calm Calm - N/A   Overcast
10:35 PM 56.5 °F - 44.6 °F 64% 29.99 in 10.0 mi Calm Calm - N/A   Overcast
10:55 PM 57.0 °F - 45.5 °F 65% 29.98 in 10.0 mi Calm Calm - N/A   Overcast
11:15 PM 55.9 °F - 47.5 °F 73% 29.98 in 10.0 mi Calm Calm - N/A   Overcast
11:35 PM 56.7 °F - 46.0 °F 68% 29.97 in 10.0 mi Calm Calm - N/A   Mostly Cloudy
11:55 PM 57.7 °F - 45.3 °F 63% 29.96 in 10.0 mi Calm Calm - N/A   Mostly Cloudy